Theta_e
309 308 308 310 311 312 312 313 314 314 313 312 311 312 313 314 314 317 319 319 321 325 325 325 326 327 330 333 333 332 334 335 337 340 345 343 341 341 345 346 344 346 347 349
308 308 310 310 310 311 311 311 311 313 314 312 312 312 312 313 313 315 317 319 319 323 324 324 324 325 326 331 337 338 335 335 336 336 340 340 340 343 343 339 337 342 344 348
308 309 310 310 309 309 309 310 310 311 312 312 312 312 311 312 313 314 316 318 320 320 322 323 325 327 330 332 339 337 335 334 334 333 338 338 337 337 339 343 341 341 344 349
309 309 309 309 310 310 309 311 312 313 311 310 312 312 311 311 312 313 314 316 316 317 320 321 322 324 329 339 339 336 335 333 332 331 330 330 338 340 337 335 341 344 346 349
309 309 309 310 312 313 313 313 314 314 313 312 311 310 311 311 312 312 312 313 315 317 319 321 319 319 323 328 337 335 333 333 332 331 332 332 336 338 338 340 348 347 348 348
309 309 311 312 313 314 313 313 313 313 312 314 312 312 312 310 311 312 312 314 314 315 319 319 319 321 321 324 325 329 334 335 333 332 332 334 340 342 343 347 349 348 347 348
308 308 309 313 313 312 311 313 319 314 312 314 312 313 312 310 311 313 313 313 314 313 317 319 319 320 321 322 324 325 327 332 333 333 333 334 338 341 343 350 349 348 347 347
309 311 309 313 313 311 310 315 315 318 319 319 313 314 311 311 311 315 315 314 314 315 315 317 319 320 321 323 323 324 324 328 334 337 339 339 339 342 348 350 348 347 346 345
311 311 311 310 310 310 310 315 316 318 317 318 314 313 312 315 317 316 315 315 315 315 317 317 318 320 321 322 323 323 324 325 331 337 340 340 342 342 350 350 347 346 345 343
312 314 311 310 311 311 310 312 315 317 320 317 313 312 315 319 317 315 314 314 316 318 321 318 318 319 321 323 326 327 328 335 341 342 341 343 344 344 350 348 346 344 342 341
312 313 313 311 311 310 311 316 316 316 316 316 315 314 320 317 315 314 314 314 316 319 320 323 321 331 334 332 333 331 333 337 339 340 340 343 348 352 349 346 343 342 342 343
313 314 314 313 311 311 312 315 315 318 319 317 317 315 316 314 313 314 314 315 315 317 318 320 324 336 342 341 343 340 343 346 346 347 348 349 349 352 348 346 347 344 346 345
314 313 315 312 310 313 314 312 312 314 314 316 317 316 315 315 314 313 314 316 317 318 318 319 328 330 339 340 347 348 347 348 348 346 348 351 350 350 348 348 347 346 344 342
312 314 314 315 313 312 314 313 313 313 314 315 315 315 315 316 315 315 316 316 317 315 316 319 319 329 339 340 346 346 348 349 347 348 349 346 344 345 345 344 342 340 339 338
315 316 314 315 315 314 313 313 312 313 313 315 313 313 311 315 316 315 315 316 316 315 314 316 325 336 338 343 346 346 346 346 346 344 344 343 343 342 340 340 338 338 335 333
314 316 316 316 315 314 314 313 313 313 313 315 314 315 314 314 313 313 314 313 313 314 315 321 337 338 341 339 344 345 345 345 345 344 343 343 341 340 339 338 335 333 332 332
309 313 315 314 314 314 312 314 316 316 315 315 316 315 315 316 314 313 312 313 312 313 315 322 337 338 334 336 342 343 344 343 343 342 341 341 340 339 337 332 330 330 332 331
312 314 314 316 315 316 312 316 315 315 314 315 314 316 318 319 319 319 316 318 318 315 328 333 336 335 335 337 341 342 342 341 340 339 338 337 336 334 330 330 331 331 331 332
313 314 314 313 313 315 314 316 315 315 314 316 315 314 315 315 316 319 319 319 322 325 326 327 334 328 327 331 338 337 336 335 335 333 334 333 331 330 332 333 331 331 331 333
316 315 316 314 315 312 317 314 313 312 315 314 311 311 311 312 316 318 316 316 320 322 326 330 332 334 330 335 334 334 333 332 332 333 333 332 332 332 332 332 332 332 331 331
317 316 314 315 316 315 313 313 311 314 316 310 309 309 309 311 311 312 312 314 319 321 326 331 331 333 338 334 333 331 331 331 334 334 333 333 332 331 332 331 332 331 332 332
316 315 316 317 317 313 312 312 314 313 310 310 310 310 310 311 311 312 312 316 320 324 328 331 331 334 337 333 332 331 332 333 333 333 332 332 332 332 331 331 331 332 332 332
313 316 315 315 314 314 312 312 312 311 312 311 310 310 312 315 315 313 314 319 322 326 331 332 334 336 337 334 333 333 333 332 332 332 332 332 332 331 330 330 332 332 332 332
314 312 313 314 313 313 313 312 309 311 311 310 310 311 313 315 317 318 319 320 322 326 331 333 336 334 334 334 333 333 333 333 332 332 332 331 333 332 330 330 330 330 332 331
312 315 316 316 313 313 313 310 310 311 310 309 310 312 313 314 314 316 318 319 323 327 331 332 335 336 334 334 334 333 334 332 332 332 332 332 333 331 331 331 331 332 331 332
316 317 316 314 312 312 310 309 311 310 309 309 311 312 313 313 314 316 319 321 325 329 332 333 335 334 335 334 334 334 333 332 331 331 332 333 332 330 330 328 327 330 331 332
Wind_Speed
6 5 5 11 10 10 12 15 13 15 12 13 11 17 19 13 14 17 20 20 17 19 22 27 27 26 27 30 31 31 30 29 30 26 24 24 25 27 28 30 31 34 29 37
6 5 8 13 13 13 10 14 15 13 9 12 13 18 19 16 16 16 13 18 21 13 13 17 28 32 28 31 30 35 38 34 29 28 26 27 27 27 30 30 34 35 32 34
6 11 14 16 14 15 12 14 16 19 13 13 12 15 21 20 14 15 17 9 7 11 14 14 10 13 16 24 34 39 38 38 36 31 30 29 27 25 21 22 30 35 31 31
6 9 14 12 12 12 15 11 15 17 13 11 5 15 14 19 21 13 14 13 10 10 9 17 14 8 9 14 29 34 34 33 33 32 32 33 26 20 31 25 25 34 29 28
11 10 12 11 9 15 16 15 19 15 17 13 12 7 13 7 18 15 12 18 16 12 10 11 12 11 21 15 19 30 32 33 34 34 36 36 30 29 29 22 25 28 26 27
10 5 4 4 8 8 12 15 16 11 9 12 15 10 19 11 18 19 14 14 17 19 14 11 11 23 22 28 27 25 28 33 35 39 40 35 31 26 22 19 28 28 27 23
7 8 5 4 2 5 7 4 5 4 4 15 13 12 18 11 15 13 12 15 17 17 11 12 16 11 17 21 28 31 31 35 40 41 40 36 33 27 24 25 30 28 25 24
3 7 5 2 6 6 9 4 4 5 4 7 19 7 10 11 13 20 21 17 16 13 13 12 13 16 14 25 29 31 27 26 31 35 37 34 30 28 25 27 31 30 27 25
6 6 8 13 15 12 4 3 9 5 10 4 5 11 13 10 16 21 22 24 21 23 25 17 19 10 14 24 29 31 34 31 31 33 33 31 29 27 22 27 27 25 22 22
6 16 5 12 12 10 7 1 2 4 3 3 5 11 5 14 16 18 20 22 24 24 26 19 12 9 14 19 25 36 35 34 35 34 33 29 25 24 27 28 24 21 21 22
7 2 10 10 4 13 13 2 4 4 2 3 4 2 3 8 11 15 18 20 23 20 21 18 9 6 9 13 16 23 28 28 28 26 26 26 26 27 30 27 24 24 23 23
3 4 10 20 20 14 12 6 3 1 3 4 4 8 6 4 7 10 17 17 22 20 18 23 17 15 4 12 20 26 29 29 31 27 24 23 26 28 31 29 26 26 25 24
2 3 6 9 4 4 2 10 5 5 2 7 5 5 5 2 5 9 11 17 19 19 16 17 22 23 8 4 17 22 26 28 31 25 25 24 25 28 32 32 28 28 26 25
6 4 7 8 13 11 14 12 13 4 2 12 11 13 17 5 3 9 13 15 16 20 21 8 25 20 6 9 14 22 23 30 30 28 28 30 30 32 32 31 29 28 25 22
2 5 11 17 20 21 19 20 18 16 18 13 22 19 20 9 4 4 13 11 17 28 28 22 24 15 8 10 23 26 25 28 31 28 29 29 33 35 33 30 27 22 20 18
5 3 5 17 18 18 20 14 16 18 17 10 11 8 19 9 8 9 17 17 17 24 26 16 7 6 3 11 6 27 26 27 31 29 26 28 33 32 29 26 23 21 20 18
1 3 4 5 8 12 8 3 6 8 9 6 4 7 12 11 9 11 18 20 22 17 14 13 6 1 16 17 30 25 28 30 29 29 27 28 29 29 27 21 19 19 25 26
6 5 3 5 6 2 1 14 9 11 9 10 7 9 12 16 18 19 13 9 12 11 8 10 9 10 5 12 28 31 31 30 30 27 25 27 28 25 20 20 23 24 24 23
5 2 3 3 3 11 7 7 6 8 14 5 10 15 17 20 18 16 15 18 13 9 8 7 12 21 16 15 23 31 31 30 28 24 25 29 26 22 22 23 25 24 24 22
7 5 2 3 4 3 4 7 10 8 5 11 13 12 16 16 9 11 18 22 21 16 8 9 12 4 27 23 31 28 25 24 22 29 28 30 29 26 22 26 25 23 20 18
3 2 6 6 5 5 0 10 10 1 3 15 15 17 17 11 10 18 24 24 18 15 16 18 16 6 20 22 30 22 22 18 32 29 29 29 29 27 24 26 23 20 19 19
3 2 3 3 3 6 4 8 2 5 14 14 13 17 18 19 21 20 22 20 17 20 21 14 13 6 21 22 27 19 25 31 32 29 29 25 27 27 28 24 22 20 19 23
2 4 2 4 4 2 3 6 5 13 13 8 14 17 19 20 13 16 16 14 15 17 18 8 13 9 12 18 26 28 28 33 31 32 29 26 27 27 27 24 20 19 25 25
4 4 3 3 5 7 5 5 7 9 9 12 14 16 16 15 15 14 13 12 12 14 16 14 8 11 13 21 28 28 28 31 34 26 25 26 26 22 23 21 19 19 23 22
11 5 3 5 9 5 5 7 9 9 7 15 13 14 14 14 14 13 13 13 12 11 14 11 11 14 15 27 26 29 30 33 27 27 27 25 26 24 18 16 12 13 14 19
2 3 3 3 4 4 6 7 5 5 9 12 13 14 11 13 13 14 13 13 12 13 10 10 13 9 27 26 25 29 29 32 28 24 22 23 24 21 21 23 17 12 16 16
Wind_Direction
312 342 275 261 266 261 277 284 290 300 322 324 301 291 292 295 302 265 241 241 248 244 250 253 256 269 271 248 225 219 189 185 183 188 196 214 225 234 237 239 243 241 238 229
323 280 283 324 321 320 316 308 297 287 292 296 300 293 293 294 291 292 285 245 232 225 229 245 257 259 258 257 220 200 192 188 189 193 200 214 227 238 239 250 252 242 235 227
324 306 320 319 314 310 305 293 297 290 290 269 284 283 293 289 276 285 288 261 260 251 243 231 235 243 268 254 214 198 193 196 199 200 204 215 229 243 241 244 249 240 226 221
277 291 299 302 298 304 291 300 307 313 304 273 258 279 270 293 293 292 287 283 263 251 257 237 233 227 230 247 218 194 193 200 206 210 216 221 220 223 237 244 256 222 214 207
252 267 272 288 349 347 314 325 310 306 298 307 275 273 279 273 285 282 278 284 292 263 235 229 220 219 235 217 215 208 207 209 211 214 218 222 224 232 245 245 219 200 191 200
268 319 21 21 352 326 323 320 289 297 272 271 271 253 273 266 268 281 282 284 280 276 261 220 222 229 232 227 213 212 208 212 217 220 221 222 221 223 230 222 193 183 185 184
340 335 319 98 336 292 337 9 332 301 242 257 261 252 252 256 258 276 296 291 281 272 289 271 252 230 231 229 227 223 218 217 221 221 222 220 221 222 220 202 179 177 177 184
310 319 332 125 199 244 262 170 177 288 291 301 307 274 265 303 307 1 338 320 283 289 279 273 268 233 219 221 227 229 226 222 218 219 215 212 214 210 215 200 190 187 190 193
312 272 317 316 316 325 294 246 221 252 259 252 228 278 276 19 7 0 349 334 330 323 307 272 261 233 214 221 225 226 233 234 228 215 201 203 207 209 205 189 194 192 195 195
328 308 299 319 334 307 196 213 127 200 265 297 296 304 318 2 350 345 342 337 324 317 320 272 257 253 243 211 206 218 215 199 195 193 195 191 195 200 189 184 181 189 188 187
10 300 298 319 275 293 307 9 61 268 233 230 294 275 32 11 346 338 325 328 318 309 316 315 295 235 244 217 207 194 180 169 171 177 185 187 187 187 176 175 175 176 177 182
67 264 285 285 283 294 295 44 93 130 313 244 236 273 139 112 11 342 317 322 309 304 326 319 338 299 333 152 146 153 152 150 158 164 169 180 188 177 167 168 170 175 176 175
25 325 305 306 264 13 63 297 264 233 208 248 268 270 271 46 22 325 317 319 295 310 307 316 313 281 257 217 142 135 137 144 158 163 167 170 163 160 158 158 164 162 157 153
143 218 244 263 275 289 286 275 281 262 310 274 273 280 277 242 318 310 340 297 306 294 283 297 281 274 245 245 136 131 132 135 140 153 146 133 132 138 143 146 146 143 151 158
220 250 232 258 271 271 268 266 273 255 254 263 273 267 272 183 189 244 271 252 273 282 284 284 231 241 222 196 161 135 132 126 133 129 126 126 132 139 142 142 142 148 148 151
167 280 279 279 270 268 276 297 285 291 291 12 357 6 352 194 192 215 256 272 261 260 271 288 266 274 240 149 153 128 132 131 126 128 133 135 139 140 139 141 140 146 157 163
155 256 280 261 321 326 305 353 326 1 351 2 356 280 321 326 215 236 251 263 265 286 303 327 293 318 113 165 193 142 138 136 129 128 133 137 141 143 146 150 160 157 144 141
185 229 266 279 311 255 206 43 20 349 2 331 286 319 335 325 326 312 322 340 323 293 347 338 339 65 278 194 142 140 136 132 129 133 135 138 138 146 147 154 147 140 140 140
223 105 281 286 293 275 309 30 22 7 309 20 359 342 333 331 324 304 2 340 330 337 321 314 352 123 211 254 139 125 125 128 132 130 129 139 139 143 149 148 149 142 132 129
199 206 184 327 284 266 56 2 360 296 268 25 351 326 319 328 316 285 323 322 315 321 304 321 341 75 184 224 128 126 131 142 130 136 139 142 148 149 145 152 146 142 143 143
208 190 244 242 262 272 228 345 330 82 334 331 335 318 305 295 270 289 300 301 315 309 314 332 346 344 184 169 141 140 139 122 140 141 139 147 148 152 153 154 148 149 145 138
193 242 233 226 243 278 194 342 252 316 300 293 306 296 294 285 280 280 285 296 318 317 319 338 336 280 204 155 145 116 116 130 136 140 142 146 148 151 155 155 151 152 149 141
291 196 241 225 234 239 326 264 269 291 293 301 300 296 296 297 274 268 280 301 315 313 308 356 317 245 246 137 116 121 125 131 127 134 139 142 149 158 157 155 149 134 152 144
297 146 219 209 250 245 291 259 280 296 290 309 298 296 297 305 320 319 325 313 312 308 314 324 317 193 247 113 119 126 127 126 122 123 128 143 142 145 158 159 157 158 165 155
267 171 232 239 259 308 248 288 302 309 305 312 307 300 304 315 312 305 301 301 303 311 302 273 208 219 133 125 128 127 128 129 122 119 123 127 140 148 132 133 146 174 183 186
53 299 238 257 155 228 302 326 336 330 332 314 311 317 321 320 311 305 301 297 292 284 257 257 270 177 139 136 132 135 129 132 130 131 137 138 138 137 134 124 106 138 164 171